Tracking 19576 objects as of 17-Feb-2019
HD Live streaming from Space Station
objects crossing your sky now

COSMOS 2160

Track COSMOS 2160 now!
10-day predictions
COSMOS 2160 is classified as:


NORAD ID: 21731
Int'l Code: 1991-068D
Perigee: 1,404.8 km
Apogee: 1,417.3 km
Inclination: 82.6 °
Period: 113.9 minutes
Semi major axis: 7782 km
RCS: 1.112 m2 (large)
Launch date: September 28, 1991
Source: Commonwealth of Independent States (former USSR) (CIS)
Launch site: PLESETSK MISSILE AND SPACE COMPLEX (PKMTR)
aabbcc
Your satellite tracking list
Your tracking list is empty




NASA's NSSDC Master Catalog

Two Line Element Set (TLE):
1 21731U 91068D   19047.97048373 +.00000031 +00000-0 +11203-3 0  9994
2 21731 082.5849 218.0829 0008073 346.9986 130.0587 12.64627558264120
Source of the keplerian elements: AFSPC